This is the latest recevied weather packets stored in our database for station/object DL9GRB-13. If no packets are shown the sender has not sent any weather packets the latest 10 day(s).
| Time | Temp. | Humidity | Pressure | Rain* | Wind** | Luminosity | Snow |
|---|---|---|---|---|---|---|---|
| 1778059688 | 11.11° C | 69% | 1007.4 hPa | 0 mm | - | 202 W/m² | - |
| 1778059508 | 11.11° C | 69% | 1007.4 hPa | 0 mm | - | 201 W/m² | - |
| 1778059328 | 11.11° C | 69% | 1007.2 hPa | 0 mm | - | 200 W/m² | - |
| 1778059148 | 11.11° C | 69% | 1007.4 hPa | 0 mm | - | 200 W/m² | - |
| 1778058968 | 11.11° C | 69% | 1007.6 hPa | 0 mm | - | 201 W/m² | - |
| 1778058788 | 11.11° C | 68% | 1007.3 hPa | 0 mm | - | 202 W/m² | - |
| 1778058608 | 10.56° C | 70% | 1007.3 hPa | 0 mm | - | 202 W/m² | - |
| 1778058428 | 10.56° C | 70% | 1007.5 hPa | 0 mm | - | 201 W/m² | - |
| 1778058248 | 10.56° C | 70% | 1007.3 hPa | 0 mm | - | 200 W/m² | - |
| 1778058068 | 10.56° C | 70% | 1007.5 hPa | 0 mm | - | 200 W/m² | - |
| 1778057888 | 10.56° C | 69% | 1007.6 hPa | 0 mm | - | 199 W/m² | - |
| 1778057708 | 10.56° C | 68% | 1007.5 hPa | 0 mm | - | 196 W/m² | - |
| 1778057528 | 10.56° C | 69% | 1007.5 hPa | 0 mm | - | 193 W/m² | - |
| 1778057348 | 10.56° C | 69% | 1007.5 hPa | 0 mm | - | 188 W/m² | - |
| 1778057168 | 10.56° C | 69% | 1007.5 hPa | 0 mm | - | 186 W/m² | - |
| 1778056988 | 10.56° C | 69% | 1007.4 hPa | 0 mm | - | 184 W/m² | - |
| 1778056808 | 10.56° C | 69% | 1007.4 hPa | 0 mm | - | 181 W/m² | - |
| 1778056628 | 10.56° C | 71% | 1007.2 hPa | 0 mm | - | 181 W/m² | - |
| 1778056448 | 10.56° C | 71% | 1007.2 hPa | 0 mm | - | 181 W/m² | - |
| 1778056268 | 10.56° C | 71% | 1007.4 hPa | 0 mm | - | 183 W/m² | - |
| 1778056088 | 10.56° C | 71% | 1007.4 hPa | 0 mm | - | 183 W/m² | - |
| 1778055908 | 10.56° C | 71% | 1007.4 hPa | 0 mm | - | 180 W/m² | - |
| 1778055728 | 10.56° C | 71% | 1007.4 hPa | 0 mm | - | 173 W/m² | - |
| 1778055548 | 10.56° C | 71% | 1007.4 hPa | 0 mm | - | 168 W/m² | - |
| 1778055368 | 10.56° C | 71% | 1007.3 hPa | 0 mm | - | 163 W/m² | - |
* Rain latest hour (hover to see other rain measurements)
** Current wind speed in m/s (hover to see current wind gust speed)